Theta_e
295 295 294 294 294 294 293 293 293 293 293 293 293 293 292 292 291 291 291 291 290 290 290 290 290 290 290 289 289 289 289 288 288 288 288 288 288 288 288 288 288 288 288 288 288 288 288 288 288 288 288 288 288 288 288 288 288 288 288 288 288 289 289 288 289 289 289 289 289 289 289 289 289 289 289 289 289 289 289 290 290 291 291 292 292 293
294 294 294 293 293 293 293 293 293 293 293 293 292 292 291 291 291 290 290 290 290 290 290 290 290 290 289 289 289 289 289 289 289 289 289 289 289 289 289 289 289 289 289 289 289 289 289 289 289 289 289 288 288 288 288 288 288 288 288 288 288 288 288 288 288 288 288 288 288 288 288 288 288 288 288 288 288 288 289 289 289 290 290 291 291 292
294 294 294 294 294 294 293 293 293 292 292 291 291 290 290 290 290 290 290 290 289 289 289 289 289 289 289 289 289 289 289 289 289 289 289 289 289 289 289 289 289 289 289 289 289 289 289 289 289 289 289 289 289 289 289 289 288 288 288 288 288 288 288 288 288 287 287 287 287 288 287 287 287 287 287 288 288 288 288 288 289 289 289 290 291 291
294 294 294 294 294 293 293 292 292 291 291 290 290 290 290 290 289 289 289 289 289 289 289 289 289 289 289 289 289 289 289 289 290 290 290 290 290 290 290 290 290 290 290 290 290 289 289 289 289 289 289 289 289 289 289 289 289 289 289 289 289 288 288 288 288 287 287 287 287 287 287 287 287 287 287 287 288 288 288 288 288 289 289 289 290 290
294 293 293 293 293 292 292 291 291 290 290 290 289 289 289 289 289 289 289 288 289 289 289 289 289 289 289 289 289 289 289 290 290 290 290 290 290 290 290 290 290 290 290 290 290 289 289 289 289 289 289 289 289 289 289 289 289 289 289 289 289 288 288 288 288 287 287 287 287 287 287 287 287 287 287 287 288 288 288 288 289 289 289 289 289 290
293 292 292 292 291 291 290 290 290 289 289 289 289 289 289 289 288 288 288 288 289 289 289 289 289 289 289 289 289 289 289 290 290 290 290 290 290 290 290 290 290 290 289 289 289 289 289 289 289 289 289 289 289 289 289 289 289 289 289 289 289 288 288 288 288 288 287 288 287 287 287 287 287 287 287 287 288 288 288 289 289 289 289 290 290 290
291 291 291 290 290 290 289 289 289 289 289 289 289 288 288 288 288 288 288 288 288 289 288 288 288 288 288 289 289 289 289 289 289 289 290 290 290 290 290 289 289 289 289 289 289 289 289 289 289 289 289 289 289 289 289 289 289 289 289 288 288 288 288 288 288 288 288 288 288 288 287 287 287 287 287 288 288 288 288 289 289 289 289 290 290 290
290 290 290 289 289 289 289 289 288 288 288 288 288 288 288 288 288 288 288 288 288 288 288 288 288 288 288 289 289 289 289 289 289 289 289 289 289 289 289 289 289 289 289 289 289 289 289 289 288 289 289 289 289 289 289 289 289 288 288 288 288 288 289 289 289 288 288 288 288 288 288 288 288 288 288 288 288 288 288 288 289 289 289 289 289 289
289 289 289 288 288 288 288 288 288 288 288 288 288 288 288 288 288 288 288 288 288 288 288 288 288 288 288 289 289 289 289 289 289 289 289 289 289 289 288 288 288 288 288 288 289 289 289 289 288 289 289 289 289 289 288 288 288 288 288 288 288 288 288 289 289 289 289 288 288 288 288 288 288 288 288 288 288 288 288 288 288 288 289 289 289 289
288 288 288 288 287 288 288 288 288 287 287 287 287 288 288 288 288 288 288 288 288 288 288 288 288 288 288 289 289 289 289 289 289 289 288 288 288 288 288 288 288 288 288 288 288 289 289 289 289 289 289 289 289 288 288 288 288 288 288 288 288 288 288 288 288 288 288 288 288 288 288 288 288 288 288 288 288 288 288 288 288 288 288 288 288 289
288 288 287 287 287 287 287 287 287 287 287 287 288 288 288 288 288 288 288 288 288 288 288 288 288 288 288 289 289 289 289 289 288 288 288 288 288 288 288 288 288 288 288 288 288 288 288 288 288 288 288 288 288 288 288 288 288 288 288 288 288 288 288 288 288 288 288 288 288 288 288 288 288 288 288 288 288 288 288 288 288 288 288 288 288 288
287 287 287 287 287 287 287 286 287 287 287 287 288 288 288 288 288 288 288 288 288 288 288 288 288 288 288 288 289 289 288 288 288 288 288 287 288 287 287 287 287 288 288 288 288 288 288 288 288 288 288 288 288 288 288 288 288 288 288 288 288 288 288 288 288 288 288 288 288 288 288 288 288 288 288 288 288 288 288 288 288 288 288 288 288 288
287 287 287 287 287 287 286 286 287 287 287 287 287 287 287 287 287 287 287 287 287 287 287 287 288 288 288 289 288 288 288 287 287 287 287 287 287 287 287 287 287 287 288 288 288 288 288 288 288 288 288 288 288 288 288 287 287 287 287 287 287 287 288 288 288 288 288 288 288 288 288 288 288 288 288 288 288 288 288 288 288 288 288 288 288 288
286 286 286 286 286 286 286 286 287 287 287 287 287 287 287 287 287 287 287 287 287 287 287 287 288 288 288 289 288 288 287 287 287 287 287 287 287 287 287 287 287 287 288 288 288 288 288 288 287 287 287 287 287 287 287 287 287 287 287 287 287 287 287 288 288 288 288 288 288 288 288 288 288 288 288 287 288 288 288 288 288 288 288 288 288 288
286 286 286 286 286 286 286 287 287 287 287 287 287 287 287 287 287 287 287 287 287 287 287 287 287 288 288 288 288 287 287 286 286 286 286 287 287 287 287 287 287 287 287 287 287 287 287 287 287 287 287 287 287 287 287 287 287 287 287 287 287 287 287 287 288 288 288 288 288 288 288 288 288 288 288 288 288 288 287 287 287 288 288 288 288 288
286 286 286 286 286 286 286 286 286 287 287 287 287 287 287 287 287 287 287 287 287 287 287 287 287 287 287 288 288 287 287 286 286 286 286 286 287 287 287 287 287 287 287 287 287 287 287 287 287 287 287 287 287 287 287 287 287 287 287 287 287 287 287 287 287 287 287 288 288 288 288 288 288 288 288 288 288 288 288 288 288 288 288 288 288 288
286 286 286 286 286 286 286 286 286 286 286 286 286 286 287 287 286 286 287 287 287 286 286 286 286 286 286 287 287 287 286 286 286 286 286 286 287 287 287 287 287 287 287 287 286 286 286 286 286 286 286 286 287 287 287 287 287 287 287 287 287 287 287 287 287 287 287 287 287 287 288 288 288 288 288 288 288 288 288 288 288 288 288 288 288 288
286 286 286 286 286 286 286 286 286 286 286 286 286 286 286 286 286 286 286 286 286 286 286 285 285 285 285 285 286 287 286 286 285 285 286 286 287 287 287 287 286 286 286 286 286 286 286 286 286 286 286 286 286 286 287 287 287 287 287 287 287 287 287 287 287 287 287 287 287 287 287 287 288 288 288 288 288 288 288 288 288 288 288 288 288 288
287 287 286 286 286 286 286 286 286 286 286 286 286 286 286 286 286 286 286 286 286 285 285 285 285 285 285 285 286 286 286 286 285 285 286 286 286 287 287 286 286 286 286 286 286 286 286 286 286 286 286 286 286 286 286 287 287 287 287 287 287 287 287 287 287 287 287 287 287 287 287 288 288 288 288 288 288 288 288 288 288 288 288 288 288 288
287 287 287 286 286 286 286 287 286 286 286 286 286 286 286 286 286 286 286 286 286 285 285 285 284 285 285 285 286 286 286 286 285 285 285 285 286 286 286 286 285 285 285 285 286 286 286 286 286 286 286 286 286 286 286 287 287 287 287 287 287 287 287 287 287 287 287 287 287 287 287 288 288 288 288 288 288 288 288 288 288 288 288 288 288 288
287 287 287 287 286 286 286 286 286 286 286 286 286 286 286 286 286 286 286 286 285 285 285 284 285 285 285 285 286 286 286 285 285 285 285 285 285 285 286 285 285 285 285 285 286 286 286 286 286 286 286 286 286 286 286 286 287 287 287 287 287 287 287 287 287 287 287 287 287 287 287 287 287 288 288 288 288 288 288 288 288 288 288 288 288 288
287 287 287 286 286 286 286 286 286 286 286 286 286 286 286 286 286 285 285 285 285 285 285 284 285 285 285 285 286 286 286 285 285 284 284 284 284 285 285 285 285 285 285 285 285 285 285 285 286 286 286 286 286 286 286 287 287 287 287 287 287 287 288 287 287 287 287 287 287 287 287 287 287 287 287 287 287 287 288 288 288 288 288 288 288 288
287 287 286 286 286 286 286 286 286 286 286 286 286 286 286 285 285 285 285 285 285 285 284 284 285 285 285 285 285 286 286 285 284 284 284 283 284 285 285 285 285 285 285 285 285 285 285 285 285 286 286 286 286 286 286 287 287 287 287 287 287 288 287 287 287 287 287 287 287 287 287 287 287 287 287 287 287 287 287 287 287 287 287 288 288 288
286 286 286 286 286 286 286 286 286 286 286 286 286 285 285 285 285 285 285 285 284 284 284 284 284 284 284 285 285 285 285 285 284 284 283 283 284 284 285 285 284 284 285 285 285 285 285 285 285 286 286 286 286 286 287 287 287 287 287 287 287 287 287 287 287 287 287 287 288 288 288 288 288 288 288 288 287 287 287 287 287 287 287 287 287 287
287 287 287 287 287 286 286 286 286 286 285 285 285 285 285 285 285 285 284 284 284 284 284 284 284 283 284 284 284 284 285 285 284 284 283 283 283 284 284 284 284 284 284 285 285 284 285 285 285 286 286 286 286 286 287 287 287 287 287 287 287 287 287 287 287 287 288 288 288 288 288 288 288 288 288 288 288 288 288 287 287 287 287 287 287 287
287 287 287 286 286 286 286 286 286 285 285 285 285 284 284 284 284 284 284 284 284 284 283 283 282 283 283 283 283 284 284 284 284 284 283 283 283 283 284 284 284 283 284 284 284 284 285 285 285 286 286 286 286 287 287 287 287 287 287 287 287 287 287 287 287 288 288 288 288 288 288 288 288 288 288 288 288 288 288 288 288 288 287 287 287 287
287 286 286 286 286 286 286 286 286 286 285 285 285 285 284 284 284 284 284 284 284 283 283 282 282 282 283 282 283 283 284 284 284 284 283 283 282 283 283 284 283 283 283 284 284 284 284 285 285 286 286 286 286 286 287 287 287 287 287 287 287 287 287 287 287 288 288 288 288 288 288 288 288 288 288 288 288 288 288 288 288 288 287 287 287 287
287 286 286 286 286 286 286 286 286 286 285 285 285 285 284 284 284 284 284 284 283 283 283 282 282 282 282 282 282 283 283 284 284 283 283 282 282 282 283 283 283 283 283 283 284 284 284 285 285 285 285 285 285 286 286 286 287 287 287 287 287 287 287 287 287 287 288 288 288 288 288 288 288 288 288 288 288 288 288 288 288 287 287 287 287 287
286 286 286 286 286 286 286 286 286 286 285 285 285 285 284 284 284 284 284 283 283 283 282 282 282 281 281 281 282 282 283 283 283 283 282 282 282 283 283 283 282 282 282 283 283 284 284 284 284 284 284 285 285 285 286 286 287 287 287 287 287 287 287 287 287 287 288 288 288 288 288 288 288 288 288 288 288 288 288 288 287 287 287 287 287 287
286 286 286 286 286 286 286 286 285 285 285 285 285 284 284 284 283 283 283 283 282 282 282 282 281 281 281 281 281 281 282 283 283 283 282 282 282 282 282 282 282 281 281 282 282 283 284 284 284 284 284 284 284 285 285 286 286 286 287 287 287 287 287 287 287 287 287 287 288 288 288 288 288 288 288 288 288 287 287 287 287 287 287 287 287 287
286 286 286 286 286 286 285 285 285 285 285 285 284 284 284 283 283 283 282 282 282 282 281 281 281 281 281 280 281 281 282 283 284 283 282 282 281 281 281 281 281 281 281 281 281 281 282 283 284 285 284 284 284 285 285 285 286 286 286 286 286 286 286 286 286 287 287 287 287 288 288 288 288 288 288 288 287 287 287 287 287 286 286 286 286 286
286 286 286 286 286 285 285 285 285 285 285 284 284 284 284 283 283 282 282 281 281 281 281 281 281 281 280 280 280 281 281 283 284 283 282 281 281 281 280 281 281 281 281 280 280 280 281 282 283 284 284 283 283 284 284 285 285 285 285 285 285 285 286 286 286 286 287 287 287 288 288 288 288 288 288 288 288 287 287 287 287 286 286 286 286 286
286 286 286 286 286 286 285 285 285 285 285 284 284 284 284 283 283 282 282 281 281 281 281 281 281 281 281 280 280 281 282 283 283 283 282 281 281 280 280 280 280 280 280 280 280 280 280 281 282 283 283 283 283 283 283 284 284 284 284 284 284 285 285 285 285 286 286 287 287 287 288 288 288 288 288 288 288 288 288 287 287 286 286 285 285 286
286 286 286 286 286 286 286 286 285 285 285 285 284 284 284 284 283 283 283 282 282 282 282 282 281 281 281 281 281 281 282 283 283 283 282 281 280 280 280 280 280 280 280 280 280 280 280 280 280 281 281 282 283 283 283 283 284 284 284 284 284 284 285 285 285 285 286 286 287 287 288 288 288 288 288 288 288 288 288 287 287 286 286 285 285 285
286 286 286 286 286 286 286 286 286 285 285 285 285 284 284 284 284 284 283 283 283 283 283 283 282 282 282 281 281 282 283 283 283 283 282 281 280 280 280 280 280 280 280 280 280 280 280 280 280 280 281 281 282 283 283 283 283 283 283 283 283 284 284 284 285 285 286 286 287 287 287 288 288 288 288 288 288 288 287 287 287 286 286 285 285 284
286 287 287 286 286 286 286 286 286 286 286 285 285 285 284 284 284 284 284 284 283 283 283 283 283 283 283 282 282 282 283 283 283 283 282 281 280 280 280 280 280 280 280 280 280 280 280 280 280 280 280 281 281 282 283 283 283 283 283 283 283 283 284 284 284 285 285 286 286 287 287 287 287 288 288 288 287 287 287 287 287 286 286 286 286 285
287 287 287 287 287 287 287 286 286 286 286 285 285 285 284 284 284 284 284 284 284 284 284 284 284 284 283 283 283 282 283 283 283 283 282 282 281 280 280 280 280 280 280 280 280 280 280 280 280 280 280 281 281 281 282 282 282 282 283 283 283 283 283 284 284 284 284 285 286 286 287 287 287 287 287 287 287 287 287 287 287 287 287 286 286 286
287 287 287 287 286 286 286 286 286 286 285 285 285 285 285 285 284 284 284 284 284 284 284 284 284 284 284 283 283 283 283 283 283 283 282 282 281 280 280 280 280 280 280 280 280 280 280 280 280 280 280 281 281 281 281 282 282 282 282 283 283 283 283 283 284 284 284 284 285 286 286 286 286 286 286 286 286 286 286 287 287 286 286 286 286 286
287 287 286 286 286 286 286 286 286 285 285 285 285 285 285 285 285 285 285 285 285 284 284 284 284 284 284 283 283 283 283 283 283 283 283 282 281 281 280 280 280 280 280 280 280 280 280 280 280 280 280 281 281 281 281 281 281 281 282 282 283 283 283 283 283 283 284 284 285 285 286 286 286 285 285 285 285 285 285 285 285 285 285 285 285 285
286 286 286 286 286 285 285 285 285 285 285 285 285 285 285 285 285 285 285 285 285 284 284 284 283 283 283 283 283 283 283 283 283 283 283 282 282 281 281 280 280 280 280 280 280 280 280 280 280 280 281 281 281 281 281 281 281 281 281 282 282 283 284 284 283 283 284 284 284 285 285 285 285 285 285 284 284 284 284 284 284 284 284 284 284 284
286 286 286 286 285 285 285 285 285 285 285 285 285 285 285 285 285 285 285 285 285 284 284 283 283 283 283 283 283 283 283 283 283 283 282 282 282 281 281 280 280 281 281 281 281 281 281 281 281 281 281 281 281 281 281 281 281 282 282 282 282 283 284 284 284 284 284 284 284 284 284 284 284 284 284 284 284 283 283 283 283 283 283 283 283 283
285 285 285 285 285 285 285 285 285 285 285 285 285 285 285 285 284 284 284 284 284 284 283 282 282 281 282 282 282 283 283 282 282 282 282 282 282 281 281 281 281 281 281 281 281 281 281 281 281 281 281 281 281 281 281 281 282 282 282 282 282 283 283 284 285 284 284 284 284 284 284 284 284 284 284 284 283 283 283 283 283 283 283 283 283 283
285 285 285 285 285 285 285 285 285 285 285 285 285 285 285 284 284 283 283 283 283 283 282 282 281 281 281 282 282 282 282 282 282 282 282 282 282 282 281 281 281 281 281 281 281 281 281 281 281 281 281 281 281 281 281 281 282 282 282 282 282 282 282 284 285 285 284 284 284 284 284 284 284 284 283 283 283 283 283 283 283 283 283 283 283 283
285 285 285 285 285 285 285 285 285 285 285 285 285 285 285 284 284 283 282 282 282 282 282 281 281 281 281 281 282 282 282 282 282 282 282 282 282 282 281 281 281 281 281 281 281 281 281 281 281 281 281 281 281 281 281 281 282 282 283 283 283 283 283 284 284 285 284 284 284 284 284 284 284 283 283 283 283 283 283 283 283 283 283 283 283 283
284 284 284 284 284 285 284 285 285 285 285 285 285 284 284 284 283 283 282 282 282 282 282 281 281 281 281 282 282 281 281 282 282 282 282 282 282 282 281 281 281 281 281 281 281 281 281 281 281 281 281 281 281 281 281 281 282 283 283 284 284 283 283 284 284 284 283 284 284 284 284 284 284 283 283 283 283 283 283 283 283 283 283 283 283 283
284 284 284 284 284 284 284 284 284 284 284 284 284 284 284 283 283 282 282 282 282 282 282 282 282 282 282 282 282 282 281 282 282 282 282 282 282 282 282 281 281 281 281 281 281 281 281 281 281 281 281 281 281 281 282 282 282 283 284 284 284 283 283 284 284 284 284 284 284 284 284 284 283 283 283 283 283 283 283 283 284 284 284 284 284 284
283 283 283 283 283 284 284 284 284 284 284 284 284 283 283 283 282 282 282 282 282 282 282 282 282 282 282 282 282 282 282 282 282 282 282 282 282 282 282 281 281 281 281 281 281 281 281 281 281 282 282 282 282 282 282 283 283 283 283 284 284 283 283 283 284 284 284 283 283 284 284 284 283 283 283 283 283 283 284 284 284 284 284 284 284 284
283 283 283 283 283 283 284 284 283 283 283 283 283 283 283 283 282 282 282 283 283 282 282 282 282 282 282 282 282 282 282 282 282 282 282 282 282 282 281 281 281 281 281 282 282 282 282 282 282 282 282 282 282 282 283 283 283 283 283 283 283 283 283 283 283 284 283 283 283 284 284 283 283 283 283 283 283 284 284 284 284 285 284 284 284 284
283 283 283 283 283 283 283 283 283 283 283 283 283 283 283 283 283 283 283 283 283 283 283 283 283 283 282 282 282 282 282 282 282 282 282 282 282 282 282 282 282 282 282 282 282 282 282 282 282 282 282 282 282 282 283 283 283 283 283 283 283 283 283 283 283 283 283 283 283 284 284 283 283 284 284 284 284 284 284 284 284 284 285 285 285 285
283 283 283 283 283 283 283 283 283 283 283 283 283 283 283 283 283 283 283 283 283 283 283 283 283 283 283 283 282 282 282 282 282 282 282 282 282 282 282 282 282 282 282 282 282 282 282 282 282 282 282 282 282 282 283 283 283 283 283 283 283 283 283 283 283 283 283 283 283 284 284 284 284 284 284 284 284 284 284 284 284 285 285 285 285 285
284 284 283 283 283 283 283 283 283 283 283 283 283 283 283 283 283 284 284 284 283 283 283 283 283 283 283 283 283 283 283 283 282 282 282 282 282 282 282 282 282 282 282 282 282 282 282 282 282 282 283 283 283 283 283 283 283 283 283 283 283 283 283 283 283 283 284 284 284 284 284 284 284 284 284 284 284 284 284 284 284 285 285 285 285 285
Wind_Speed
26 27 28 29 29 30 30 31 31 31 31 32 32 32 33 33 34 34 34 33 32 31 31 30 29 27 26 24 23 22 21 21 20 20 20 19 20 19 19 19 19 18 18 18 19 19 20 20 21 21 21 22 22 22 23 24 24 25 25 26 27 27 28 28 29 29 29 29 29 29 29 29 29 29 29 29 28 28 28 29 30 31 31 32 31 31
27 28 28 29 29 29 30 30 30 29 30 30 31 32 32 32 33 33 32 31 30 29 28 27 26 24 23 21 21 20 20 20 19 19 19 19 19 19 18 18 18 17 18 18 19 20 21 21 21 21 21 22 22 22 22 22 23 24 24 25 26 27 27 28 28 29 29 29 29 29 29 30 30 29 29 28 27 27 27 28 28 30 31 31 31 31
28 28 29 29 29 29 29 29 29 29 29 29 30 30 30 31 30 30 29 28 27 26 25 24 23 21 20 20 19 19 20 20 19 19 19 18 18 18 17 17 17 18 18 19 20 21 22 22 22 22 22 22 22 22 22 22 22 23 23 24 25 26 27 27 28 28 28 28 29 29 29 29 29 29 29 28 27 27 27 27 28 28 29 30 31 30
28 28 29 29 29 29 28 28 29 29 28 28 28 28 28 28 28 27 27 26 25 24 23 22 21 20 20 20 20 20 20 20 19 19 18 18 18 17 17 17 17 18 19 20 21 22 22 22 22 22 22 22 22 21 21 22 22 22 23 23 24 25 25 26 26 27 27 28 28 28 28 28 28 28 28 28 27 27 27 27 27 28 28 29 30 30
27 27 27 27 27 28 28 28 28 27 27 26 26 26 26 25 25 25 24 23 22 22 22 21 21 22 22 23 23 22 22 21 20 19 18 18 17 17 17 18 18 19 20 21 22 22 22 23 22 22 22 22 21 21 21 21 21 21 22 22 23 23 24 24 25 25 26 26 27 27 27 27 27 27 27 27 26 26 26 26 26 27 27 28 28 28
26 25 25 26 26 26 27 26 26 25 24 24 24 23 23 23 23 22 22 21 21 21 22 22 23 24 24 24 24 23 22 21 20 19 18 18 18 18 18 19 19 20 21 22 22 23 23 23 22 22 22 21 21 21 21 20 20 21 21 21 22 22 22 23 24 24 25 25 26 26 26 26 26 26 26 26 25 25 25 25 25 25 26 26 26 27
24 24 24 24 24 24 24 23 22 21 21 21 22 22 22 21 21 21 20 20 21 21 23 24 25 25 25 25 24 23 22 21 20 19 18 18 18 19 19 20 20 21 22 23 23 23 23 22 22 21 21 21 20 20 20 20 20 20 20 21 21 22 22 23 23 24 24 25 25 25 26 26 26 26 25 25 25 25 25 25 25 25 25 26 26 26
23 23 22 22 21 21 20 19 18 18 18 19 20 21 21 21 20 20 20 20 21 22 24 25 26 26 25 25 24 23 22 21 20 19 19 19 20 20 21 21 22 22 23 23 23 23 22 22 21 21 20 20 20 19 19 19 19 20 21 21 22 22 23 23 24 24 24 25 25 25 25 25 25 25 25 25 25 25 26 26 26 26 26 26 26 26
20 20 20 19 18 18 18 17 17 16 16 17 18 19 20 20 20 20 21 21 22 24 25 27 28 28 26 25 24 23 21 21 20 20 21 21 22 22 23 23 23 24 24 24 23 22 22 21 21 20 20 19 19 19 19 20 20 21 22 22 23 23 23 24 24 25 25 25 25 25 26 26 26 25 25 25 26 26 26 26 26 27 27 27 26 27
17 17 16 16 15 15 15 16 16 16 16 16 17 17 18 19 21 22 24 24 25 26 26 28 29 29 28 26 24 23 22 22 21 21 22 23 23 24 24 25 25 25 25 24 23 22 21 21 20 20 20 20 20 20 20 21 22 22 23 23 24 24 24 25 25 25 25 25 25 26 26 26 26 26 26 26 26 26 26 26 27 27 27 28 28 27
15 14 14 13 13 13 14 15 16 16 16 16 17 17 17 18 21 24 26 27 28 28 28 28 28 29 28 27 25 24 24 24 24 24 24 24 25 25 26 26 27 26 26 25 23 22 22 21 21 21 20 20 21 21 22 22 23 24 24 24 25 25 25 25 26 26 26 26 25 26 26 26 26 26 27 27 27 27 27 27 28 28 28 29 29 29
13 13 13 13 13 14 14 15 16 16 17 17 18 18 18 20 22 24 26 28 29 30 30 29 29 28 27 27 26 26 25 25 26 26 26 26 26 27 28 28 27 27 26 24 23 22 22 22 22 21 21 22 22 23 23 24 25 25 25 25 26 26 26 26 26 27 27 26 26 26 26 26 26 27 27 27 27 28 28 28 29 29 29 30 30 30
12 12 13 13 14 14 15 16 16 16 16 17 18 19 20 22 23 25 26 28 29 30 30 31 30 28 26 26 26 26 26 26 26 26 27 27 28 28 29 29 28 27 25 24 23 23 22 22 22 22 22 23 23 24 24 25 25 26 26 26 26 27 27 27 27 27 27 27 27 27 26 27 27 27 27 27 27 27 28 28 28 29 29 30 30 30
12 12 13 14 14 15 15 16 16 16 16 17 18 20 21 23 24 25 27 28 29 29 29 30 30 29 27 25 25 25 26 27 27 28 28 28 28 29 29 29 28 26 25 24 24 23 23 23 24 24 24 24 24 25 25 26 26 26 26 27 27 27 27 26 26 26 26 26 26 26 26 26 26 26 26 26 26 26 27 27 28 28 29 29 30 30
13 13 14 15 16 16 15 16 16 16 16 17 19 21 22 24 25 26 27 29 29 29 29 30 31 30 28 26 25 25 26 27 28 30 30 30 29 28 28 28 27 26 25 25 25 25 24 24 24 25 25 25 25 26 26 26 27 27 27 26 26 26 26 25 25 25 25 25 25 24 24 24 24 24 25 25 25 25 26 26 27 28 28 29 29 29
13 14 15 16 16 16 16 16 16 16 17 18 20 21 23 24 25 26 27 28 29 29 30 31 32 31 30 27 25 25 26 28 29 31 32 32 31 28 27 27 27 26 25 25 25 26 25 25 25 25 26 26 26 26 27 27 27 27 27 26 25 25 24 24 24 24 23 23 23 23 23 23 23 23 23 24 24 25 25 26 27 27 28 28 29 29
13 14 15 16 16 16 16 16 16 17 18 19 20 22 23 24 25 26 27 27 28 29 29 29 30 30 31 30 27 26 27 28 30 32 33 33 31 29 27 26 27 27 27 26 26 26 26 26 26 26 26 26 27 27 27 28 27 27 26 25 25 24 23 22 22 22 22 22 22 22 23 23 22 22 22 23 23 24 25 26 27 27 28 28 29 29
13 14 15 16 16 16 16 16 17 18 19 20 21 22 23 23 24 25 25 26 26 27 28 28 28 28 29 31 30 28 27 29 30 32 33 33 32 30 27 26 27 27 28 27 27 27 26 26 26 26 27 27 27 28 28 28 28 27 26 25 23 22 22 21 21 21 21 21 22 22 23 23 23 23 23 23 23 24 25 25 26 27 28 28 29 29
12 13 14 15 15 16 16 16 17 18 19 21 22 23 23 23 23 24 24 24 25 26 26 27 27 28 29 30 30 29 28 28 30 31 32 33 33 31 28 27 28 28 28 28 28 27 27 27 27 27 27 28 28 29 29 28 28 26 25 23 22 21 21 21 21 21 22 22 22 23 23 24 24 24 24 24 24 24 24 25 26 26 27 28 28 29
12 12 13 14 15 15 16 16 16 17 18 19 21 22 23 24 23 23 24 24 25 25 26 26 27 28 29 30 30 29 28 28 29 30 32 33 33 31 29 28 28 29 30 29 29 28 27 27 28 28 29 29 30 30 29 28 27 25 24 22 22 21 21 22 22 22 23 23 23 23 24 24 24 25 25 25 25 25 25 25 25 26 26 27 28 29
12 12 12 13 14 15 15 15 15 16 17 18 20 21 22 23 23 24 24 24 25 25 26 26 27 28 29 30 30 29 28 28 28 29 31 32 32 31 29 29 29 30 31 31 30 29 29 29 30 31 31 31 31 31 30 28 26 24 23 22 22 23 23 23 23 23 23 23 24 24 24 24 25 25 25 25 25 25 25 25 25 25 26 26 27 28
12 12 12 12 13 14 15 15 15 16 17 18 19 20 21 22 23 24 24 24 25 25 26 27 27 28 29 30 30 29 28 27 26 28 30 31 31 31 30 29 29 30 31 31 31 30 31 32 33 33 33 33 32 31 29 27 25 24 24 23 24 24 24 24 24 24 24 24 24 24 24 24 24 24 24 24 24 24 24 24 25 25 25 26 26 27
11 11 12 12 13 14 15 15 16 16 17 17 19 20 21 22 23 24 24 24 25 26 26 27 28 28 29 29 29 29 27 26 25 26 27 29 31 32 31 30 30 31 32 32 32 32 33 34 35 35 35 34 32 31 28 27 26 25 25 26 26 26 25 25 24 24 23 23 23 23 23 23 23 23 23 23 23 23 24 24 24 24 25 25 26 26
11 11 12 12 13 14 15 16 17 17 18 18 19 20 20 21 21 22 23 24 24 25 26 28 29 29 29 29 29 28 27 25 25 25 26 28 30 32 32 31 31 32 33 33 34 34 35 36 37 37 36 34 32 30 28 27 27 27 27 27 27 26 26 25 24 23 23 22 22 22 22 22 22 22 23 23 23 23 23 23 23 23 24 24 25 25
12 13 13 14 14 15 16 17 18 18 19 19 20 20 20 20 21 22 23 24 24 25 26 27 28 28 28 28 28 28 27 26 25 25 25 28 30 32 31 30 30 32 34 35 36 36 37 38 38 38 36 34 32 30 29 29 29 29 29 29 28 27 25 24 23 23 22 22 22 22 22 22 22 22 22 22 22 22 22 22 22 23 23 23 24 25
14 14 15 16 16 16 17 17 17 17 17 17 18 18 19 20 21 22 23 23 23 24 25 26 26 27 27 27 28 28 28 27 26 25 25 26 29 31 31 30 31 32 35 37 37 37 38 39 39 38 36 34 32 31 31 31 31 31 31 29 28 26 25 24 23 22 22 21 21 21 22 22 22 22 22 22 22 22 22 22 22 23 23 24 24 25
14 15 16 16 16 17 17 17 17 17 16 16 16 16 16 18 20 21 22 22 23 23 24 25 25 27 27 27 28 28 29 28 27 24 23 25 27 29 30 31 32 33 36 38 38 38 38 38 38 37 35 34 34 33 33 33 33 32 31 29 27 26 24 23 22 22 22 22 22 22 22 22 22 22 22 22 22 22 22 22 23 23 24 25 26 27
15 15 16 16 17 17 17 17 17 17 17 16 15 15 15 17 18 20 21 22 23 23 24 24 25 26 26 27 28 29 29 28 26 23 23 24 26 28 31 32 32 33 35 38 39 39 38 37 36 35 34 34 35 35 35 35 34 33 31 29 27 26 24 24 23 23 22 23 23 23 23 22 22 22 22 22 23 23 23 23 24 24 25 26 28 29
15 16 17 17 17 17 18 18 17 17 17 16 15 15 16 17 18 20 21 22 23 23 24 24 24 25 27 28 30 30 29 27 24 23 24 24 27 30 32 31 31 31 33 37 40 40 38 35 33 32 32 34 35 36 37 37 35 34 32 30 28 27 26 25 25 25 24 24 24 24 24 23 23 23 23 23 23 23 24 24 24 25 26 27 28 30
17 17 17 18 18 18 18 17 17 17 17 16 16 16 16 17 18 19 21 22 22 23 24 24 25 26 27 28 29 29 28 26 24 24 25 26 29 31 31 30 29 30 31 34 37 38 38 36 33 31 31 33 36 37 38 37 36 35 33 32 31 30 29 28 28 28 27 27 26 26 25 25 24 24 24 24 24 24 24 24 24 25 26 28 29 30
18 18 18 18 18 18 17 17 17 17 17 17 16 16 16 17 18 18 19 20 21 22 24 25 26 26 26 27 27 26 27 27 26 25 26 27 29 29 30 29 29 30 30 30 31 33 36 38 37 35 34 35 37 38 38 38 37 36 35 34 34 33 32 32 31 31 30 29 29 28 27 26 25 25 24 24 24 24 24 24 24 25 26 28 29 30
19 19 19 18 18 18 17 17 17 16 16 16 16 16 16 16 16 17 18 19 20 21 23 25 26 26 26 26 26 27 29 30 28 26 26 27 28 29 29 29 30 30 29 28 27 28 31 36 40 41 40 39 38 39 39 38 37 36 36 36 36 35 35 34 34 33 33 32 31 29 28 27 26 26 25 25 24 24 24 24 24 24 26 27 29 30
19 19 19 18 18 17 17 16 16 16 16 16 16 16 16 15 15 16 16 17 18 20 21 23 25 26 26 27 28 29 30 30 28 26 25 26 28 29 29 29 31 31 31 30 28 28 30 35 40 42 42 41 39 38 38 38 37 36 36 36 37 37 36 36 35 35 35 34 32 31 30 28 27 26 25 25 25 25 25 24 24 24 25 26 28 30
19 19 19 18 18 17 17 16 16 16 16 15 15 15 15 15 15 15 16 16 17 18 20 21 23 24 25 27 28 29 30 29 27 25 25 25 27 29 30 30 31 31 32 31 31 31 33 35 37 39 41 42 40 38 37 37 36 36 36 36 37 37 38 37 37 36 36 35 34 33 31 30 28 27 27 26 26 26 26 25 25 25 25 26 27 29
20 19 19 18 18 18 17 17 16 16 16 15 15 15 15 15 15 15 16 16 17 18 19 19 20 22 23 25 27 29 30 28 26 25 24 25 27 29 30 31 31 31 32 32 32 33 34 35 36 36 38 40 40 39 37 36 36 36 37 37 37 38 38 38 37 37 36 36 35 34 33 32 31 30 29 28 28 27 27 26 26 26 26 26 26 28
19 19 19 19 18 18 17 17 16 16 16 15 15 14 14 15 15 15 16 16 17 17 18 19 19 20 22 23 25 27 29 28 26 25 24 25 26 28 30 31 31 30 31 32 33 33 34 35 36 36 37 38 39 40 39 38 37 37 38 38 38 38 38 38 38 37 37 37 36 36 34 34 33 32 32 31 30 29 28 28 27 26 26 26 26 26
19 18 18 18 18 18 17 17 16 15 15 15 15 15 14 14 15 15 16 16 17 18 19 19 20 21 21 23 24 26 27 27 26 25 24 24 25 27 29 31 30 30 30 32 33 33 34 36 37 37 37 36 36 38 39 40 40 39 40 39 39 39 38 38 37 37 37 38 38 37 36 35 35 34 34 33 32 31 30 29 28 28 27 27 27 27
18 18 17 17 17 17 17 16 16 15 15 15 15 15 14 14 15 16 16 17 18 19 20 21 21 22 22 23 24 25 26 26 26 26 25 24 24 25 27 29 30 29 29 30 32 33 34 35 37 38 38 37 37 37 38 39 40 41 41 40 39 38 38 37 37 37 37 38 38 37 37 36 36 36 36 35 35 34 34 33 32 30 30 29 29 29
17 17 16 16 16 16 16 16 16 15 15 15 15 15 15 15 16 17 18 19 20 21 21 22 23 24 24 24 25 25 26 26 26 26 25 24 24 24 26 28 29 29 29 29 30 31 32 34 35 36 37 39 40 40 39 39 39 39 41 42 42 40 38 37 37 37 38 38 38 38 38 38 38 38 38 37 37 37 37 36 35 34 33 33 32 31
16 15 15 15 15 15 15 15 16 16 16 16 16 16 16 17 18 18 19 20 21 22 23 24 25 25 26 26 26 27 27 27 26 26 25 25 24 24 24 26 28 29 29 29 29 30 31 33 34 36 37 39 41 42 41 41 41 40 40 41 42 41 40 39 38 38 38 38 38 39 39 39 39 39 39 38 38 38 37 37 37 36 35 34 34 34
15 15 15 15 14 15 15 16 16 16 16 17 17 18 18 19 20 21 21 22 23 24 24 25 26 27 27 28 28 28 28 28 27 26 26 25 25 25 25 25 26 27 28 29 29 30 31 32 34 36 37 38 39 40 41 41 41 39 38 39 41 42 43 41 39 38 37 37 38 39 39 40 40 40 39 39 38 38 37 37 37 37 36 35 34 35
14 15 15 15 15 15 16 16 16 17 17 18 18 19 19 20 21 22 24 25 25 26 26 27 28 29 30 30 29 29 29 28 28 27 27 26 26 26 25 25 26 26 27 29 30 31 31 32 33 35 36 37 38 39 41 43 42 40 39 39 41 43 43 43 40 37 37 38 39 39 40 40 40 40 40 39 39 39 38 38 37 37 36 36 36 35
14 15 15 15 16 16 17 17 18 18 18 19 19 19 20 21 22 23 25 26 27 27 28 28 28 29 30 32 32 31 30 29 28 28 28 27 27 27 27 26 26 26 27 28 30 32 32 32 33 34 35 36 37 39 41 42 43 42 39 39 39 40 40 41 41 39 39 40 40 40 40 40 40 40 40 40 40 40 39 39 38 37 36 36 36 36
15 15 16 16 17 17 17 18 18 18 19 19 20 21 21 22 23 24 25 26 27 28 29 29 29 30 31 32 33 33 32 31 30 29 29 28 28 28 28 28 28 27 27 28 30 32 33 33 34 34 35 35 37 38 39 41 42 42 40 39 39 39 40 41 42 42 41 41 41 40 40 40 40 40 41 42 41 41 41 40 39 39 38 37 37 37
15 16 17 17 17 18 18 18 19 19 19 20 21 22 22 23 23 25 26 27 28 28 29 29 29 30 31 32 33 33 33 33 32 31 30 30 29 29 29 29 29 29 29 29 29 31 32 34 35 36 36 36 37 38 39 40 42 42 42 41 40 39 40 41 41 41 41 42 42 42 41 41 41 42 43 43 43 43 41 40 40 40 39 39 38 38
16 17 18 18 18 19 19 19 20 20 21 21 22 23 23 24 25 25 26 27 28 29 29 29 29 30 31 32 33 33 33 34 34 33 32 32 31 31 31 31 30 30 30 30 30 31 32 33 34 35 36 37 38 39 39 40 40 41 42 41 40 40 40 41 41 41 42 42 42 43 43 42 42 42 42 43 43 43 42 40 40 40 40 39 38 38
17 18 18 18 19 19 20 20 21 21 22 23 24 24 25 25 26 26 27 27 28 29 29 29 29 29 30 32 32 33 33 34 35 35 34 34 33 33 32 32 32 31 31 31 32 32 32 33 33 34 34 36 38 39 39 39 39 40 40 41 40 41 42 42 42 42 41 41 41 42 43 43 42 43 44 44 44 43 43 42 42 41 41 40 39 38
17 18 18 19 19 20 21 21 22 23 24 25 25 26 26 26 26 27 27 28 28 29 29 30 30 31 32 32 32 32 33 33 34 35 35 35 35 34 33 33 32 32 32 32 32 33 33 33 32 32 33 34 36 38 39 38 38 38 39 39 40 41 42 43 43 43 42 42 42 43 43 42 42 43 44 44 44 45 45 45 45 44 42 41 40 39
16 17 18 19 20 21 22 22 23 24 25 26 27 27 27 27 27 27 27 28 29 29 29 30 31 32 33 33 33 33 33 33 34 34 35 35 35 34 34 33 33 33 33 33 33 33 33 33 33 32 32 31 33 35 37 38 38 38 38 39 40 41 42 43 43 43 43 42 43 44 43 43 43 42 42 43 44 45 46 46 46 45 43 42 41 39
17 17 18 19 20 21 22 23 24 24 25 27 28 28 28 28 28 28 28 29 29 29 30 30 31 32 33 33 33 33 33 33 34 34 35 35 34 34 34 34 34 34 34 35 34 33 32 33 33 33 31 29 29 31 34 36 38 38 38 39 39 40 41 42 43 42 42 42 43 43 43 43 43 42 41 41 42 44 45 46 46 45 44 42 41 39
17 18 19 20 21 22 23 23 24 25 26 27 28 29 29 29 29 29 30 30 30 30 30 31 32 32 33 33 34 33 33 33 34 34 35 35 34 33 33 34 34 35 35 36 35 34 33 33 33 32 31 29 27 27 29 32 34 36 38 39 39 38 39 39 40 41 41 42 42 42 42 42 42 41 40 40 41 42 44 45 45 45 44 42 40 40
Wind_Direction
277 279 281 283 284 285 287 289 291 294 296 298 300 302 304 304 305 306 307 309 311 313 313 314 314 315 316 318 320 322 323 324 324 324 323 323 322 322 321 321 322 323 324 326 327 328 329 328 327 326 324 322 320 318 315 313 312 310 309 308 307 306 305 304 303 303 302 301 301 299 297 295 294 293 292 291 290 288 284 281 277 273 270 268 266 265
281 282 283 284 285 286 288 290 292 295 298 300 301 302 303 304 305 306 308 310 311 312 313 313 313 314 316 319 322 324 325 325 325 324 324 323 322 322 321 322 322 323 325 327 328 329 329 329 328 327 325 324 321 319 317 315 313 312 310 308 307 306 306 305 304 303 303 302 302 301 299 298 298 297 295 294 292 289 286 283 279 276 273 271 270 269
283 284 284 285 286 288 290 292 294 297 299 301 302 303 303 304 305 307 309 311 312 312 312 313 314 316 319 322 325 326 326 326 325 324 323 322 321 321 320 320 321 323 325 327 328 329 329 329 328 327 326 324 323 321 320 318 316 314 312 311 309 308 307 307 306 305 305 304 303 302 302 301 300 299 297 295 293 291 288 285 282 279 276 274 273 272
285 286 286 288 289 291 293 295 297 299 300 302 302 303 303 304 306 308 311 312 312 313 314 315 318 321 324 326 328 328 327 326 325 323 322 321 320 320 320 321 322 324 326 327 328 329 329 329 328 328 327 326 324 323 322 320 318 317 315 314 312 311 310 309 309 308 307 306 305 305 304 303 302 301 299 298 296 293 291 288 285 282 280 278 276 275
286 287 289 291 293 295 297 298 299 301 302 302 302 303 304 305 307 310 311 312 313 315 317 319 322 325 327 329 330 329 328 326 325 324 322 321 321 321 322 323 325 327 328 329 330 330 330 330 329 329 328 327 325 324 322 321 320 319 317 316 315 314 313 312 312 311 310 309 308 307 307 305 304 303 301 300 298 296 294 292 290 287 284 282 280 278
288 290 292 295 297 298 299 300 301 303 304 304 304 304 306 308 310 312 313 315 316 318 319 321 323 325 327 329 330 329 328 327 326 325 324 324 324 326 327 328 329 330 331 331 331 331 331 331 330 330 329 327 326 324 323 322 321 320 319 319 318 317 316 315 314 313 313 312 311 310 309 308 306 305 303 302 300 298 296 295 293 292 290 288 285 283
292 294 297 299 299 300 301 303 304 306 308 308 308 308 309 312 314 316 317 318 318 318 319 320 322 324 327 329 330 330 329 328 327 327 327 328 329 331 333 333 333 333 332 332 331 331 332 332 331 330 329 327 326 325 324 323 323 322 322 321 321 320 319 318 317 316 315 315 314 313 311 310 308 306 304 303 301 299 297 296 294 294 293 291 290 287
296 298 300 301 302 303 304 306 308 310 312 312 312 313 315 317 318 318 318 317 317 317 317 318 320 324 328 331 332 332 331 330 329 330 330 332 334 335 336 335 333 332 332 331 331 331 332 331 331 330 329 328 327 327 326 326 325 325 324 324 324 323 322 321 320 319 318 317 315 313 312 310 307 305 304 302 300 298 297 296 295 294 293 293 292 290
299 301 302 302 304 307 309 310 312 314 316 316 316 318 319 320 319 317 315 314 314 315 318 319 322 326 330 334 335 334 332 331 332 332 333 335 336 336 335 333 332 331 330 331 331 331 332 331 330 329 329 329 329 329 329 328 328 327 327 327 326 325 323 322 321 319 318 316 314 312 310 308 306 304 302 300 299 297 296 295 295 294 293 293 292 291
300 302 303 305 307 310 313 313 315 317 318 318 318 318 318 317 316 314 313 313 315 318 320 322 325 328 331 334 336 335 334 333 333 334 335 335 335 334 333 331 330 329 329 330 330 331 331 330 329 329 329 330 330 330 330 330 329 329 329 328 326 324 321 320 318 316 315 313 312 310 309 307 305 303 301 299 297 296 295 294 293 292 292 291 291 291
302 303 304 307 311 313 315 316 318 320 320 319 317 316 315 314 314 314 314 315 318 321 323 324 326 329 331 334 335 335 335 334 334 334 334 334 333 331 330 328 327 327 328 328 329 330 330 329 329 329 330 330 331 331 331 330 330 329 328 326 324 321 318 316 315 313 312 311 310 308 307 306 304 303 301 299 297 295 294 292 291 290 290 290 291 291
305 307 308 311 314 317 318 318 319 320 320 320 319 318 316 314 314 315 314 316 319 322 324 325 326 329 331 333 335 336 336 335 334 333 332 331 330 329 327 326 326 326 326 326 327 328 329 329 329 330 331 331 331 331 331 330 328 327 325 323 321 318 316 314 313 312 311 309 308 306 305 304 303 302 301 299 297 295 293 292 291 290 290 291 291 291
309 311 312 314 317 319 321 321 321 323 323 322 320 317 314 314 315 316 314 316 319 322 323 323 325 327 330 333 335 336 336 334 331 329 327 326 326 327 326 325 325 325 326 326 327 328 329 329 329 330 331 331 330 329 328 327 326 324 322 320 318 316 314 313 312 310 309 307 306 304 303 301 301 300 299 298 296 295 293 292 291 291 290 290 290 291
311 312 313 313 316 320 322 323 324 325 323 319 315 312 311 313 315 315 315 316 319 321 322 321 322 325 329 333 336 337 335 331 328 325 322 321 323 325 325 324 324 325 326 326 327 329 331 331 330 330 330 329 328 327 325 324 322 321 320 318 317 315 314 312 311 309 307 306 304 302 301 300 299 298 297 296 296 295 294 293 292 291 290 290 290 290
314 315 315 316 318 320 322 324 323 321 317 313 310 310 311 312 313 315 315 316 319 321 322 321 322 325 328 333 336 337 333 328 324 322 320 320 323 325 326 324 324 324 326 326 327 330 331 331 330 329 328 326 324 323 321 320 320 319 319 318 317 316 314 313 311 309 307 306 305 303 302 301 299 298 297 296 295 294 294 293 292 291 290 290 290 289
316 317 317 317 318 320 322 321 319 314 310 309 309 309 308 309 312 315 316 317 319 321 322 323 324 325 327 331 335 336 332 326 322 320 319 319 323 327 328 325 325 325 326 327 328 330 331 330 328 326 324 322 320 320 319 319 319 319 320 319 319 317 315 313 312 310 309 309 308 307 306 304 301 299 297 296 295 294 293 292 291 291 290 290 289 289
318 317 317 317 317 318 320 319 315 310 308 308 309 309 309 310 312 314 315 316 318 320 321 323 323 322 323 327 332 334 332 326 322 320 319 319 322 327 329 327 326 326 327 328 328 328 328 326 323 321 319 318 318 318 318 319 320 321 321 320 319 318 316 314 313 312 311 311 311 310 309 307 305 302 300 298 296 294 293 292 291 290 289 288 288 287
319 319 318 317 317 318 320 319 315 312 310 309 309 309 311 311 312 313 314 316 318 319 320 320 319 317 318 319 325 332 333 327 323 320 319 319 322 326 330 329 328 327 326 325 325 324 323 321 319 317 316 316 317 318 319 320 321 322 322 321 320 318 317 316 315 314 314 313 313 312 312 310 309 307 304 302 300 297 295 293 292 290 289 288 287 286
323 324 323 320 319 321 323 321 318 314 311 310 310 310 309 311 313 314 315 317 318 318 317 316 315 314 314 315 321 329 333 329 324 321 320 321 323 326 330 330 328 325 323 321 321 320 319 317 316 316 316 317 318 320 321 322 323 323 322 321 320 319 318 318 318 318 317 316 316 315 314 313 311 309 307 304 302 300 297 295 294 292 290 289 287 285
330 332 331 326 324 324 325 324 321 317 314 312 311 310 310 312 314 316 317 318 318 317 316 314 312 313 314 316 321 328 332 330 326 324 322 322 323 326 329 328 324 320 318 317 318 318 318 317 316 317 317 319 320 322 323 324 324 323 322 321 321 321 321 321 321 321 321 320 319 317 315 313 310 308 306 303 301 299 297 295 293 292 290 289 287 286
335 336 333 328 325 324 324 324 321 318 315 313 312 311 312 315 316 318 318 318 317 316 316 313 312 313 315 316 321 327 331 331 329 326 323 320 320 322 326 324 320 316 314 315 317 318 318 317 317 318 319 320 322 324 324 325 324 323 323 323 323 324 324 325 325 324 323 321 319 316 313 311 308 305 303 301 299 297 295 294 292 290 289 288 287 286
334 334 333 329 325 323 322 321 320 317 315 313 313 313 315 316 317 317 318 317 316 315 314 312 313 315 316 317 322 327 331 332 330 326 321 315 314 317 321 320 317 314 313 316 318 319 318 318 318 319 320 322 323 325 325 325 325 325 325 326 327 328 328 328 327 325 323 320 317 314 311 308 306 304 301 300 298 297 296 294 293 291 290 289 287 286
333 332 331 328 324 321 320 320 319 318 316 315 315 315 316 316 315 315 315 315 315 314 314 314 315 316 317 319 323 327 331 331 329 324 317 310 309 313 318 319 317 315 314 316 318 318 317 317 318 319 320 322 324 325 325 325 326 327 328 329 330 330 330 329 327 325 321 318 315 313 310 308 306 304 302 300 299 298 297 295 294 293 292 290 289 288
332 330 329 327 324 322 322 321 321 320 320 319 318 316 316 315 314 313 314 314 315 316 317 317 317 317 318 321 323 325 328 329 326 320 313 307 308 312 317 319 318 316 315 316 317 317 316 316 318 319 321 323 325 326 326 327 328 329 330 331 331 331 330 327 325 322 319 317 314 312 310 308 307 305 304 302 301 299 298 296 295 293 292 290 289 288
333 331 330 329 328 327 326 325 323 322 321 318 316 314 314 313 312 312 313 314 316 317 318 317 317 317 318 319 320 322 325 326 324 320 315 310 310 313 317 319 318 315 314 315 316 316 315 316 317 320 322 324 326 327 327 328 329 330 331 331 330 329 327 324 322 320 318 316 314 313 311 310 309 307 306 305 303 302 300 298 297 295 293 291 289 287
335 334 333 332 330 329 327 325 321 318 316 312 309 308 308 308 309 309 310 313 316 318 319 318 316 315 317 318 318 320 323 324 324 323 318 314 312 313 316 318 317 314 313 314 315 316 316 316 318 321 323 325 326 327 328 329 330 330 330 329 328 326 324 321 320 318 317 316 315 314 313 312 311 310 309 307 306 304 302 301 299 297 296 294 292 289
334 333 332 330 327 324 322 319 316 314 312 309 308 307 306 306 306 307 308 313 318 320 319 317 315 315 316 316 317 318 321 323 325 325 322 317 312 310 313 315 315 314 313 314 316 316 317 317 319 322 324 325 326 326 327 328 329 329 328 327 325 324 322 321 320 319 318 317 317 316 316 315 314 313 312 310 309 307 305 303 302 300 298 296 294 291
331 329 327 325 322 320 318 316 314 313 311 311 311 310 308 306 305 306 310 316 320 320 319 315 314 313 313 313 314 316 319 323 326 327 323 316 309 306 309 314 315 315 315 316 317 318 318 318 320 322 323 324 324 325 325 326 327 327 327 326 325 324 323 322 322 321 321 320 320 320 319 318 317 316 314 313 311 309 307 306 304 302 300 298 295 293
329 327 325 323 321 319 317 315 314 313 312 312 313 313 311 310 309 311 315 319 320 319 317 314 313 312 311 312 314 316 318 323 326 326 321 313 307 307 311 314 316 317 318 318 319 319 318 318 319 321 321 321 321 321 322 324 325 326 327 327 326 326 326 325 325 325 324 324 323 323 322 321 319 318 316 314 313 311 309 308 306 304 301 298 296 294
328 326 324 322 320 318 317 316 315 314 314 314 315 315 314 313 313 314 316 319 319 317 315 313 312 311 312 313 314 315 316 320 324 324 320 313 310 311 314 316 317 319 320 320 320 319 318 318 318 318 318 318 318 318 320 323 325 327 328 328 328 327 328 328 328 327 326 326 326 325 324 323 321 320 318 316 314 312 310 309 307 305 302 299 297 295
327 325 323 322 320 319 318 317 317 316 316 316 316 315 314 313 313 314 315 316 315 313 312 310 310 310 310 309 309 308 309 315 322 325 322 317 313 312 315 315 316 318 320 320 318 316 315 316 316 316 316 315 316 317 320 322 325 327 328 328 327 327 328 328 328 327 327 327 327 326 325 324 323 321 319 317 315 313 312 311 309 306 303 300 298 296
325 324 322 321 321 320 320 319 318 318 317 315 314 313 312 312 312 311 310 309 308 307 306 305 305 305 306 305 302 301 304 313 322 327 325 319 314 313 315 314 314 316 319 317 314 310 308 310 313 315 315 315 316 317 320 322 324 326 327 326 325 325 326 326 326 326 326 327 327 327 326 325 324 322 320 319 317 315 314 313 311 308 305 302 300 298
323 322 321 321 321 321 321 320 319 318 316 314 313 311 310 310 309 307 306 304 302 300 298 299 301 302 304 303 302 303 306 314 322 327 325 319 315 313 314 313 313 314 316 315 312 307 304 305 309 312 314 315 315 317 318 321 323 324 324 323 322 322 324 324 324 324 325 326 326 326 326 326 325 324 322 321 319 318 317 315 314 311 308 304 302 300
320 320 320 320 320 321 321 321 320 318 316 315 314 313 312 310 309 307 306 305 303 301 299 301 302 303 306 306 306 307 311 318 324 327 325 320 314 312 313 312 311 312 313 313 311 309 306 306 307 310 312 313 314 314 316 318 320 322 322 321 320 320 321 322 323 323 324 325 325 325 326 326 326 325 324 323 322 320 319 317 315 313 310 305 301 298
319 319 319 320 320 321 321 321 321 320 319 319 319 318 316 314 312 311 310 309 308 308 307 308 308 309 309 309 308 310 314 320 325 328 326 321 317 314 312 311 311 311 311 310 310 309 307 307 307 308 309 310 311 312 313 316 318 319 319 319 318 318 319 321 322 323 324 324 324 325 326 326 326 326 325 324 323 322 320 318 315 313 309 305 300 295
320 321 321 322 323 323 323 324 323 323 324 325 324 323 320 318 316 314 313 312 311 311 312 312 313 314 314 313 312 312 316 322 328 330 329 325 320 315 310 309 310 310 309 308 308 308 306 307 307 307 307 307 308 310 313 315 316 317 317 317 317 318 319 321 322 322 323 323 323 324 325 325 325 325 324 324 323 321 319 316 314 312 309 305 301 297
321 322 324 325 326 327 328 329 329 329 330 330 330 328 325 323 320 318 316 315 315 316 316 317 318 320 320 320 319 319 322 327 331 333 332 329 323 316 310 309 310 310 308 307 307 307 306 306 307 307 306 305 305 307 311 314 315 315 315 316 316 317 318 320 321 321 320 320 321 322 323 323 323 323 322 322 322 320 318 316 314 312 310 307 304 301
322 324 327 329 330 332 333 334 335 336 336 335 334 333 330 328 325 323 321 321 321 322 323 324 325 326 326 326 326 326 328 330 333 334 333 331 325 318 312 310 311 311 310 308 307 306 305 304 304 304 305 304 304 305 307 310 312 313 314 315 315 315 315 317 318 318 317 317 318 320 321 321 321 321 321 321 321 319 317 316 316 315 313 310 307 304
325 328 332 335 336 337 339 340 340 340 340 339 338 336 334 331 329 327 326 326 327 328 329 330 330 330 330 330 330 330 331 332 333 334 333 332 328 322 316 312 311 312 312 310 308 306 304 301 300 300 301 303 304 306 307 308 308 310 313 315 316 315 315 315 315 315 315 316 316 318 319 320 320 319 319 319 318 317 316 315 315 314 313 311 308 306
331 335 339 341 343 344 345 345 345 344 343 342 341 339 336 334 331 330 330 330 332 333 334 335 334 333 333 332 332 332 332 333 333 334 333 332 330 326 320 315 313 313 313 310 307 305 302 300 299 299 300 300 302 304 306 306 307 309 310 311 311 312 314 314 314 314 315 315 315 316 316 317 317 316 316 315 314 313 312 311 311 311 310 308 306 305
339 343 345 347 349 350 350 349 347 346 345 343 342 341 340 338 336 335 335 335 336 337 338 337 336 334 332 332 332 332 332 332 332 332 332 332 330 327 323 318 315 314 312 310 307 305 303 300 299 299 300 300 301 302 303 304 306 307 306 305 306 309 313 314 314 313 314 314 314 314 314 314 314 314 313 312 311 310 309 308 308 308 308 305 303 301
346 348 349 352 354 354 352 350 349 347 346 344 344 344 344 342 341 340 340 340 340 341 340 337 334 331 330 329 330 331 331 331 331 331 331 331 330 327 324 320 317 315 313 310 307 306 304 302 300 299 299 301 301 301 302 304 306 307 304 303 305 309 313 314 315 314 312 311 312 312 312 311 311 311 311 310 309 309 309 308 306 305 304 303 302 299
349 351 352 355 355 353 351 350 349 347 346 345 346 346 346 344 343 342 342 340 340 340 339 337 334 330 326 325 327 329 330 331 331 330 330 329 329 327 325 322 320 318 315 310 307 306 306 304 302 300 301 302 301 300 300 302 305 306 305 305 305 304 305 309 313 315 312 311 311 312 311 311 310 310 310 309 308 308 308 307 305 303 302 301 300 299
351 353 355 355 353 351 350 350 349 348 348 348 347 347 347 346 345 344 342 339 338 338 338 336 333 328 324 322 324 326 328 329 330 330 330 330 329 328 326 324 323 321 317 311 307 306 306 305 304 303 305 304 302 300 299 300 302 304 305 307 305 302 299 304 310 312 312 312 312 312 312 312 311 310 310 309 308 308 307 307 306 305 303 303 301 300
353 354 355 354 353 353 352 351 350 350 349 348 348 348 348 347 346 344 341 338 337 337 336 334 330 325 322 322 323 324 325 327 329 330 331 331 331 330 328 326 324 322 319 315 311 308 306 304 305 307 309 306 302 299 297 298 300 303 306 308 307 304 303 305 308 309 308 311 313 314 315 315 314 311 309 308 307 307 306 305 304 304 304 303 301 299
353 352 352 352 352 351 350 350 351 350 350 350 350 349 348 347 346 344 341 338 336 334 334 332 328 323 320 321 323 323 323 325 327 329 330 331 332 331 330 328 326 324 321 318 315 313 309 307 307 308 308 305 302 299 298 298 298 301 304 307 307 306 305 306 307 308 309 310 311 314 316 316 313 309 306 305 306 305 305 303 302 301 302 301 299 298
352 351 351 352 352 352 352 353 352 351 350 349 349 349 348 347 345 342 340 338 336 334 332 331 327 323 321 322 323 323 322 323 325 327 329 330 331 331 331 330 328 326 322 319 317 314 312 310 309 307 305 301 299 298 299 300 299 299 302 304 305 305 304 305 307 309 310 309 309 312 314 313 309 306 305 304 304 303 303 303 303 302 301 300 298 297
353 353 353 354 353 353 353 354 353 351 349 348 348 348 348 347 344 340 339 338 337 335 332 330 327 325 324 323 323 323 323 322 323 324 326 328 329 330 329 329 327 325 323 320 317 315 312 311 309 306 303 298 296 296 299 302 302 302 302 303 303 302 302 304 307 310 310 308 309 310 311 308 305 304 303 303 301 301 301 302 303 303 302 301 299 297
357 356 357 356 355 354 353 354 353 351 348 348 346 346 347 347 344 341 340 340 338 336 333 330 328 326 325 324 324 324 324 322 322 323 324 325 327 327 327 326 325 323 321 319 317 315 313 311 309 306 303 298 295 295 298 301 303 304 304 303 301 301 301 304 306 308 308 308 308 309 308 306 304 303 301 299 298 298 299 300 301 302 302 301 300 297
2 1 1 359 356 354 354 353 352 350 348 347 346 345 344 345 346 345 343 341 338 335 333 331 329 327 325 325 325 325 324 323 322 322 323 324 325 324 323 322 322 321 319 318 317 314 312 311 309 307 305 300 296 295 296 299 303 304 303 302 301 301 301 302 304 306 306 306 307 307 306 305 304 302 299 297 295 296 297 297 298 300 301 302 300 298
4 4 3 1 358 355 354 354 352 350 348 347 345 344 343 344 344 344 344 342 338 335 333 332 330 327 325 325 325 324 323 322 321 320 321 323 323 321 320 321 320 319 318 317 315 314 312 310 308 307 306 305 302 298 295 297 299 300 299 300 300 300 300 300 301 303 304 304 304 304 303 302 302 300 298 296 295 294 295 296 297 299 301 301 300 298